Regional Weather Roundup
Issued by NWS

Home | Current Version | Previous Version | Graphics & Text | Print | Product List | Glossary On
Versions: 1 2 3 4 5 6 7 8 9 10 11 12 13 14 15 16 17 18 19 20 21 22 23 24 25 26 27 28 29 30 31 32 33 34 35 36 37 38 39 40 41 42 43 44 45 46 47 48 49 50
000
ASUS44 KMEG 290400
RWRTN
TENNESSEE HOURLY STATE WEATHER ROUNDUP
NATIONAL WEATHER SERVICE MEMPHIS TN
1000 PM CST SUN DEC 28 2014

TNZ002-004-019-021-049-052-054-088>092-290500-
WEST TENNESSEE

CITY           SKY/WX    TMP DP  RH WIND       PRES   REMARKS
MEMPHIS INTL   CLOUDY    38  35  89 N6        30.18R WCI  33
NWS MEMPHIS      N/A     37 N/A N/A MISG        N/A
JACKSON        CLOUDY    37  35  92 NE6       30.17S WCI  32
DYERSBURG      CLOUDY    36  23  60 NE5       30.21S WCI  32
UNION CITY     CLOUDY    34  32  93 N6        30.18F WCI  29
PARIS          CLOUDY    34  30  86 NE7       30.19R WCI  28
LEXINGTON      CLOUDY    37  36  93 N6        30.15R WCI  33
SAVANNAH       CLOUDY    39  39 100 N5        30.15S
$$

TNZ008-025-027-028-033-062-065-066-290500-
NORTH MIDDLE TENNESSEE

CITY           SKY/WX    TMP DP  RH WIND       PRES   REMARKS
NASHVILLE      CLOUDY    37  35  92 N8        30.18S WCI  31
CLARKSVILLE    CLOUDY    35  32  88 N8        30.18F WCI  29
COOKEVILLE     CLOUDY    39  39 100 CALM      30.11R
CROSSVILLE     LGT RAIN  43  40  89 NE5       30.10S
$$

TNZ061-075-076-078-094-096-097-290500-
SOUTH MIDDLE TENNESSEE

CITY           SKY/WX    TMP DP  RH WIND       PRES   REMARKS
FAYETTEVILLE   CLOUDY    39  37  93 N8        30.12R WCI  34
TULLAHOMA      CLOUDY    39  37  93 N6        30.12R WCI  35
WINCHESTER     CLOUDY    43  41  93 N3        30.12S
SHELBYVILLE    CLOUDY    39  39 100 N3        30.15R
$$

TNZ017-018-042-046-047-290500-
NORTHEAST TENNESSEE

CITY           SKY/WX    TMP DP  RH WIND       PRES   REMARKS
TRI CITIES     FOG       48  48 100 CALM      30.10F VSB 1/4
ELIZABETHTON   CLOUDY    46  46 100 CALM      30.10S FOG
$$

TNZ012-013-036-069-073-074-290500-
CENTRAL EAST TENNESSEE

CITY           SKY/WX    TMP DP  RH WIND       PRES   REMARKS
KNOXVILLE      LGT RAIN  50  49  96 NE5       30.09F FOG
OAK RIDGE      LGT RAIN  47  45  93 CALM      30.11F
GATLINBURG     CLOUDY    48  48 100 CALM      30.09F
$$

TNZ083-085-099-290500-
SOUTHEAST TENNESSEE

CITY           SKY/WX    TMP DP  RH WIND       PRES   REMARKS
CHATTANOOGA    CLOUDY    51  47  86 N5        30.11R
$$

SKY/WX REPORTED AS FAIR MEANS FEW OR NO CLOUDS BELOW
12 THOUSAND FEET.




USA.gov is the U.S. government's official web portal to all federal, state and local government web resources and services.